Find Starlink 5333

NORAD ID: 56507 Int'l Des: 2023-065 Owner: SPXS Country: US Constellation: starlink operational
LEOCIRCULAR

Live Position

Loading 3D Globe...

About Starlink 5333

Description loading...

Upcoming Passes

Passes for default location (London). Set your location on the main map for personalized predictions.

Altitude History

Loading altitude history...

Two-Line Element Set

1 56507U 23065E 26107.25003472 -.00000382 00000-0 -73065-5 0 9999
2 56507 42.9997 321.3986 0001447 318.7671 261.8579 15.17020532 5836
Epoch: Apr 17, 2026 • Age: 10 hours

Current Status

Altitude 514.1 km
Velocity 7.61 km/s
Sub-Earth Point 22.54°N, 104.16°W
Launch Date May 14, 2023
Age 2.9 years
Type internet

Technical Details

Classification Payload
Mass 305.00 kg
Dry Mass 290.00 kg
Total Mass 305.00 kg
Length 0.20 m
Diameter 2.80 m
Span 9.00 m
Shape Box + pan
Manufacturer SPXS
Bus Type Starlink
Phase Status In Orbit
Owner/State SPXS/US

Most Searched